[[{"header":{"parameterUnit":"m.s-1","parameterCategory":2,"la1":30.2991,"la2":30.254,"lo1":-89.0895,"lo2":-89.0444,"dy":0.0017,"dx":0.0017,"nx":28,"ny":28,"refTime":"2023-04-30T15:00:00:Z","depth":"0","parameterNumber":2,"parameterNumberName":"U-component_of_CURRENTS"},"data":[0,0,0,0,0,0,0,0,0,0,0,0,0,0,0,0,0,0,0,0,0,0,0,0,0,0,0,0,0,0,0,0,0,0,0,0,0,0,0,0,0,0,0,0,0,0,0,0,0,0,0,0,0,0,0,0,0,0,0.2877,0.2878,0,0.2976,0.2977,0.2978,0.307,0.3071,0.3072,0.3073,0.3115,0.3115,0.3116,0,0,0,0,0,0,0,0,0,0,0,0,0,0.2822,0.2822,0.2877,0.2878,0.288,0.2975,0.2977,0.2978,0.307,0.3071,0.3072,0.3073,0.3115,0.3115,0.3116,0,0,0,0,0,0,0,0,0,0,0,0,0,0.2876,0.2822,0.2877,0.2936,0.2942,0.2975,0.2977,0.2979,0.3069,0.3071,0.3072,0.3074,0.3115,0.3115,0.3116,0.3085,0,0,0.3116,0.3116,0,0,0,0,0,0,0,0,0.2873,0.2878,0.2926,0.2932,0.2939,0.3011,0.2973,0.3011,0.3069,0.3022,0.3073,0.3075,0.3074,0.3077,0.3094,0.3087,0.3088,0.3116,0.3116,0.3116,0.3116,0,0,0,0,0,0,0,0.2869,0.2874,0.2917,0.2927,0.2935,0.2976,0.2985,0.2981,0.3037,0.3026,0.3033,0.3042,0.3077,0.3094,0.3096,0.3089,0.3116,0.3116,0.3116,0.3117,0.3104,0.3103,0,0,0,0,0,0,0.285,0.287,0.2914,0.292,0.2908,0.2975,0.2986,0.2987,0.3039,0.3048,0.3041,0.3046,0.3093,0.3095,0.3097,0.3092,0.3116,0.3117,0.3117,0.3104,0.3104,0.3103,0,0,0,0,0,0,0.2849,0.2853,0.291,0.2898,0.2908,0.2974,0.2976,0.2988,0.3007,0.305,0.3059,0.3047,0.3094,0.3097,0.31,0.3093,0.3117,0.3117,0.3105,0.3104,0.3103,0.3062,0,0,0,0,0,0,0.2846,0.2851,0.2842,0.2896,0.2908,0.2916,0.2974,0.2989,0.301,0.3018,0.3058,0.3064,0.3096,0.31,0.31,0.3094,0.3117,0.3105,0.3104,0.3104,0.3064,0.306,0.3056,0,0,0,0,0,0.2844,0.282,0.284,0.2846,0.2893,0.2914,0.2923,0.2978,0.3008,0.3004,0.3043,0.3063,0.3095,0.3099,0.31,0.3093,0.3106,0.3105,0.3104,0.3065,0.306,0.3056,0,0,0,0,0,0,0.2785,0.2828,0.2852,0.2841,0.287,0.293,0.2925,0.2966,0.2994,0.3,0.3049,0.3057,0.3066,0.3075,0.3078,0.3088,0.3106,0.3105,0.3076,0.3072,0.3068,0.3048,0.3117,0,0,0,0,0,0.2767,0.2761,0.281,0.2797,0.2806,0.2863,0.2877,0.2915,0.295,0.2966,0.2998,0.303,0.306,0.3062,0.3086,0.3071,0.3088,0.3069,0.3066,0.3062,0.3047,0.3081,0.3079,0.31,0.31,0.31,0,0,0.2737,0.2761,0.2756,0.2785,0.2809,0.2814,0.2875,0.2885,0.29,0.296,0.2974,0.3016,0.3056,0.3065,0.3067,0.3069,0.3064,0.3061,0.3058,0.3045,0.308,0.3078,0.3076,0.3099,0.3099,0.3099,0,0,0.2674,0.2695,0.2671,0.2693,0.2726,0.2764,0.2762,0.2814,0.2845,0.2859,0.2925,0.2954,0.298,0.3019,0.3041,0.3019,0.3052,0.3031,0.2984,0.3017,0.3016,0.3015,0.3026,0.3027,0.3019,0.3019,0.3019,0,0.2629,0.2629,0.2665,0.2656,0.2673,0.2735,0.2725,0.2757,0.2809,0.2828,0.2851,0.2924,0.2958,0.2989,0.2997,0.3009,0.3031,0.3,0.3013,0.3012,0.3012,0.3024,0.3025,0.3017,0.3017,0.3017,0.3017,0,0.2567,0.2568,0.2552,0.2569,0.2583,0.2584,0.2637,0.2654,0.2698,0.2744,0.2781,0.2839,0.2885,0.2905,0.2947,0.2967,0.2984,0.3014,0.3023,0.3007,0.3021,0.3023,0.3014,0.3014,0.3015,0.3015,0,0,0.246,0.25,0.2498,0.2506,0.2547,0.2554,0.2564,0.2601,0.2616,0.2664,0.2687,0.2751,0.2798,0.2826,0.2886,0.291,0.2934,0.2956,0.2959,0.2965,0.2996,0.2988,0.2989,0.2977,0.2977,0.2977,0.3004,0,0.2401,0.2388,0.2424,0.241,0.2408,0.2469,0.2478,0.2519,0.2566,0.2598,0.2665,0.2712,0.2766,0.2801,0.2832,0.2925,0.2938,0.2922,0.3012,0.3014,0.3008,0.2991,0.3021,0.3046,0.3006,0.3006,0.3007,0,0.233,0.2341,0.2325,0.2359,0.2361,0.2361,0.2399,0.2419,0.2479,0.2517,0.2567,0.2637,0.2698,0.2744,0.285,0.2844,0.2906,0.296,0.2963,0.2968,0.3008,0.3058,0.3051,0.3075,0.301,0.3009,0.3009,0,0.2257,0.227,0.2266,0.2277,0.2317,0.2316,0.2338,0.2387,0.2408,0.2472,0.2493,0.2579,0.2629,0.2718,0.2842,0.2856,0.2945,0.2981,0.3016,0.3016,0.3062,0.3065,0.3086,0.3027,0.3027,0.3027,0.3027,0,0.2191,0.2181,0.2234,0.2227,0.2218,0.2261,0.2258,0.2292,0.2338,0.2357,0.245,0.2483,0.2629,0.271,0.2814,0.2916,0.2926,0.2995,0.3021,0.3047,0.3048,0.3087,0.3045,0.3028,0.3028,0.3027,0.3027,0,0.2105,0.2143,0.2133,0.2172,0.218,0.2171,0.2204,0.2208,0.2259,0.2284,0.2306,0.2416,0.2531,0.2658,0.2806,0.2876,0.2931,0.3008,0.3014,0.3039,0.3086,0.3039,0.2832,0.2773,0.3046,0.3046,0.3046,0,0.2064,0.2048,0.2083,0.2083,0.2096,0.2101,0.2107,0.2159,0.2173,0.2246,0.2254,0.2363,0.2446,0.2638,0.2817,0.2973,0.2907,0.3047,0.3071,0.3074,0.3043,0.2843,0.2794,0.3119,0.3119,0.3119,0.312,0,0.1967,0.198,0.1988,0.2006,0.2008,0.2012,0.2027,0.2028,0.2096,0.2121,0.2177,0.2244,0.2456,0.2646,0.2842,0.2954,0.2944,0.3058,0.3079,0.3096,0.2861,0.2825,0.3096,0.3124,0.3123,0.3123,0.3123,0.3123,0.1895,0.189,0.1914,0.1929,0.1932,0.1931,0.1918,0.195,0.1966,0.201,0.2102,0.2195,0.2476,0.2781,0.2927,0.3148,0.2954,0.316,0.3101,0.2896,0.2824,0.3074,0.3119,0.3119,0.3119,0.3118,0.3118,0,0.1822,0.1828,0.1837,0.1856,0.1842,0.1865,0.1872,0.1863,0.1871,0.1952,0.2013,0.2243,0.2524,0.2808,0.3114,0.3182,0.3115,0.3171,0.2958,0.2912,0.3211,0.321,0.3255,0.3255,0.3255,0.3255,0.3255,0.3255,0.1778,0.1766,0.1794,0.1772,0.1776,0.1749,0.1743,0.1738,0.1792,0.1858,0.1952,0.2059,0.23,0.2801,0.311,0.317,0.3015,0.2933,0.2845,0.3181,0.3178,0.3174,0.317,0.3205,0.3205,0.2527,0.2522,0.2518]},{"header":{"parameterUnit":"m.s-1","parameterCategory":2,"la1":30.2991,"la2":30.254,"lo1":-89.0895,"lo2":-89.0444,"dy":0.0017,"dx":0.0017,"nx":28,"ny":28,"refTime":"2023-04-30T15:00:00:Z","depth":"0","parameterNumber":3,"parameterNumberName":"V-component_of_CURRENTS"},"data":[0,0,0,0,0,0,0,0,0,0,0,0,0,0,0,0,0,0,0,0,0,0,0,0,0,0,0,0,0,0,0,0,0,0,0,0,0,0,0,0,0,0,0,0,0,0,0,0,0,0,0,0,0,0,0,0,0,0,-0.0147,-0.0146,0,-0.0085,-0.0085,-0.0084,-0.0064,-0.0064,-0.0064,-0.0064,-0.01,-0.0101,-0.0102,0,0,0,0,0,0,0,0,0,0,0,0,0,-0.0231,-0.023,-0.0147,-0.0146,-0.0145,-0.0085,-0.0085,-0.0084,-0.0064,-0.0064,-0.0064,-0.0064,-0.0099,-0.01,-0.0102,0,0,0,0,0,0,0,0,0,0,0,0,0,-0.0188,-0.023,-0.0147,-0.0125,-0.0122,-0.0085,-0.0085,-0.0084,-0.0064,-0.0064,-0.0064,-0.0064,-0.0099,-0.01,-0.0102,-0.0113,0,0,-0.0106,-0.0107,0,0,0,0,0,0,0,0,-0.0191,-0.0185,-0.0129,-0.0126,-0.0123,-0.0079,-0.0127,-0.0097,-0.0064,-0.0089,-0.0064,-0.0063,-0.01,-0.0101,-0.0093,-0.0115,-0.0116,-0.0107,-0.0108,-0.0108,-0.0109,0,0,0,0,0,0,0,-0.0194,-0.0188,-0.0126,-0.0128,-0.0124,-0.0112,-0.0107,-0.0122,-0.01,-0.0087,-0.0085,-0.0072,-0.0099,-0.0092,-0.0094,-0.0117,-0.0107,-0.0108,-0.0109,-0.0109,-0.0144,-0.0144,0,0,0,0,0,0,-0.0195,-0.0191,-0.0128,-0.0124,-0.0153,-0.0111,-0.0105,-0.0096,-0.0098,-0.0096,-0.0073,-0.0072,-0.0089,-0.0092,-0.0095,-0.0102,-0.0108,-0.011,-0.011,-0.0144,-0.0144,-0.0144,0,0,0,0,0,0,-0.0197,-0.019,-0.013,-0.0153,-0.0144,-0.0109,-0.01,-0.0095,-0.0086,-0.0085,-0.0086,-0.0068,-0.0089,-0.0093,-0.0102,-0.0104,-0.011,-0.0112,-0.0144,-0.0144,-0.0144,-0.0121,0,0,0,0,0,0,-0.02,-0.0192,-0.0193,-0.0153,-0.0143,-0.0111,-0.0099,-0.0094,-0.0077,-0.0075,-0.0082,-0.0085,-0.0089,-0.0099,-0.0103,-0.0106,-0.0113,-0.0144,-0.0144,-0.0144,-0.0122,-0.012,-0.0119,0,0,0,0,0,-0.0203,-0.0205,-0.0193,-0.0186,-0.0143,-0.0111,-0.0105,-0.0082,-0.0076,-0.0074,-0.0073,-0.0084,-0.0102,-0.01,-0.0105,-0.0109,-0.0144,-0.0144,-0.0144,-0.0122,-0.012,-0.0119,0,0,0,0,0,0,-0.0249,-0.0202,-0.0188,-0.0178,-0.0146,-0.0106,-0.0103,-0.0083,-0.0078,-0.0083,-0.0083,-0.0086,-0.0094,-0.0106,-0.0103,-0.0119,-0.0126,-0.0127,-0.0108,-0.0107,-0.0105,-0.0105,-0.0114,0,0,0,0,0,-0.0257,-0.0244,-0.0198,-0.0191,-0.0177,-0.014,-0.0126,-0.0107,-0.0091,-0.0088,-0.0087,-0.0093,-0.0098,-0.0105,-0.0113,-0.0124,-0.0129,-0.013,-0.0129,-0.0127,-0.0131,-0.0127,-0.0125,-0.0144,-0.0144,-0.0144,0,0,-0.0271,-0.0245,-0.0237,-0.0199,-0.0177,-0.0156,-0.0133,-0.0113,-0.0098,-0.0097,-0.009,-0.0089,-0.0099,-0.0103,-0.0109,-0.0115,-0.0125,-0.0127,-0.0126,-0.013,-0.0126,-0.0124,-0.0123,-0.0144,-0.0144,-0.0144,0,0,-0.0287,-0.0271,-0.0261,-0.0237,-0.0199,-0.0175,-0.0168,-0.0127,-0.0115,-0.0103,-0.0096,-0.0092,-0.0103,-0.0101,-0.0104,-0.0103,-0.0115,-0.0111,-0.0107,-0.0102,-0.0101,-0.0099,-0.0102,-0.0101,-0.0112,-0.0112,-0.0112,0,-0.0307,-0.0283,-0.0255,-0.0239,-0.0219,-0.0184,-0.0167,-0.015,-0.0117,-0.0106,-0.0104,-0.0094,-0.0101,-0.0098,-0.0094,-0.01,-0.0102,-0.011,-0.0099,-0.0098,-0.0097,-0.0101,-0.01,-0.0111,-0.0111,-0.0112,-0.0112,0,-0.0309,-0.029,-0.0285,-0.025,-0.023,-0.0212,-0.0177,-0.0162,-0.0142,-0.0118,-0.0105,-0.01,-0.0093,-0.0093,-0.0094,-0.0089,-0.0094,-0.0094,-0.0101,-0.0093,-0.0098,-0.0098,-0.011,-0.011,-0.011,-0.0111,0,0,-0.0349,-0.0294,-0.0294,-0.0269,-0.0232,-0.0211,-0.0197,-0.0162,-0.0146,-0.0124,-0.0102,-0.0099,-0.0087,-0.009,-0.0085,-0.0081,-0.0071,-0.0084,-0.0085,-0.0084,-0.0066,-0.0101,-0.0104,-0.0066,-0.0066,-0.0066,-0.0072,0,-0.0356,-0.0322,-0.0298,-0.0268,-0.024,-0.0211,-0.0197,-0.0168,-0.0144,-0.0119,-0.0105,-0.0088,-0.0089,-0.0081,-0.0076,-0.0066,-0.0069,-0.007,-0.0078,-0.0078,-0.0107,-0.0105,-0.0062,-0.0066,-0.0071,-0.0071,-0.0071,0,-0.0364,-0.0333,-0.0302,-0.025,-0.0239,-0.0224,-0.0188,-0.017,-0.0137,-0.0119,-0.01,-0.0085,-0.0069,-0.0072,-0.0061,-0.006,-0.0068,-0.0065,-0.0065,-0.0107,-0.0113,-0.0076,-0.0065,-0.0057,-0.0071,-0.0071,-0.0071,0,-0.0382,-0.0337,-0.0308,-0.0292,-0.0236,-0.0223,-0.0202,-0.0169,-0.0147,-0.0118,-0.0097,-0.008,-0.0063,-0.0064,-0.0057,-0.0058,-0.0046,-0.0049,-0.0092,-0.0094,-0.0066,-0.0067,-0.0045,-0.0055,-0.0055,-0.0055,-0.0055,0,-0.0387,-0.0363,-0.0312,-0.0291,-0.0262,-0.0229,-0.02,-0.018,-0.0145,-0.0113,-0.0099,-0.0069,-0.0059,-0.0046,-0.0053,-0.0069,-0.0046,-0.0095,-0.0099,-0.0058,-0.0058,-0.0058,-0.0072,-0.0055,-0.0055,-0.0055,-0.0055,0,-0.0399,-0.0369,-0.0326,-0.0275,-0.0261,-0.0241,-0.0194,-0.0169,-0.0144,-0.0102,-0.0092,-0.0055,-0.0039,-0.0038,-0.0034,-0.0065,-0.0088,-0.0093,-0.0052,-0.0053,-0.0106,-0.0121,-0.0218,-0.0196,-0.0147,-0.0148,-0.0149,0,-0.0398,-0.0374,-0.032,-0.0298,-0.0273,-0.0238,-0.021,-0.0173,-0.0142,-0.0087,-0.0063,-0.0039,-0.0004,-0.0019,-0.0059,-0.009,-0.0104,-0.0101,-0.0109,-0.0109,-0.0127,-0.0205,-0.0182,-0.0055,-0.0055,-0.0055,-0.0055,0,-0.0385,-0.0368,-0.0335,-0.0294,-0.0262,-0.0219,-0.0177,-0.0149,-0.0101,-0.0062,-0.0008,0.0023,0.0009,0.0015,-0.0047,-0.0076,-0.0113,-0.0106,-0.0098,-0.0057,-0.0145,-0.0124,-0.0059,-0.0054,-0.0054,-0.0054,-0.0054,-0.0054,-0.0382,-0.0359,-0.0318,-0.0284,-0.0247,-0.0194,-0.0154,-0.0099,-0.0041,0.0067,0.0059,0.0175,0.0169,0.0099,-0.0018,-0.0099,-0.014,-0.0095,-0.0113,-0.0193,-0.0176,-0.0132,-0.0143,-0.0144,-0.0144,-0.0145,-0.0145,0,-0.0372,-0.0342,-0.0306,-0.0255,-0.0215,-0.0195,-0.0124,-0.0058,0.0025,0.017,0.0241,0.0418,0.036,0.028,0.0169,0.0002,-0.011,-0.0084,-0.0132,-0.0104,-0.0034,-0.003,-0.0026,-0.0026,-0.0026,-0.0026,-0.0026,-0.0026,-0.036,-0.0326,-0.0303,-0.0234,-0.0199,-0.0124,-0.0078,0.0035,0.0162,0.0424,0.0619,0.0746,0.0863,0.0513,0.0284,0.0139,0.0023,-0.0144,-0.0154,-0.0042,-0.0043,-0.0043,-0.004,-0.0039,-0.0039,-0.0193,-0.0195,-0.0195]}],[{"header":{"parameterUnit":"m.s-1","parameterCategory":2,"la1":30.2991,"la2":30.254,"lo1":-89.0895,"lo2":-89.0444,"dy":0.0017,"dx":0.0017,"nx":28,"ny":28,"refTime":"2023-04-30T15:00:00:Z","depth":"2","parameterNumber":2,"parameterNumberName":"U-component_of_CURRENTS"},"data":[0,0,0,0,0,0,0,0,0,0,0,0,0,0,0,0,0,0,0,0,0,0,0,0,0,0,0,0,0,0,0,0,0,0,0,0,0,0,0,0,0,0,0,0,0,0,0,0,0,0,0,0,0,0,0,0,0,0,-0.0728,-0.0728,0,-0.0738,-0.0738,-0.0739,-0.0723,-0.0722,-0.0722,-0.0721,-0.0714,-0.0714,-0.0714,0,0,0,0,0,0,0,0,0,0,0,0,0,-0.0726,-0.0726,-0.0728,-0.0728,-0.0728,-0.0738,-0.0738,-0.0739,-0.0723,-0.0722,-0.0722,-0.0721,-0.0713,-0.0714,-0.0714,0,0,0,0,0,0,0,0,0,0,0,0,0,-0.0732,-0.0726,-0.0728,-0.0721,-0.0721,-0.0738,-0.0738,-0.0739,-0.0723,-0.0722,-0.0721,-0.0721,-0.0713,-0.0714,-0.0714,-0.0736,0,0,-0.0716,-0.0716,0,0,0,0,0,0,0,0,-0.0731,-0.0732,-0.0722,-0.0722,-0.0721,-0.0728,-0.0735,-0.0737,-0.0724,-0.0723,-0.0721,-0.072,-0.0717,-0.0717,-0.0722,-0.0736,-0.0736,-0.0716,-0.0716,-0.0717,-0.0717,0,0,0,0,0,0,0,-0.0731,-0.0731,-0.0733,-0.0722,-0.0722,-0.0728,-0.0727,-0.0735,-0.0725,-0.0723,-0.0722,-0.0722,-0.0716,-0.0722,-0.0722,-0.0735,-0.0716,-0.0717,-0.0717,-0.0717,-0.0696,-0.0695,0,0,0,0,0,0,-0.0727,-0.0731,-0.0733,-0.0733,-0.0723,-0.0729,-0.0728,-0.0727,-0.0726,-0.0724,-0.0723,-0.0721,-0.0721,-0.0721,-0.0722,-0.065,-0.0717,-0.0717,-0.0718,-0.0697,-0.0695,-0.0694,0,0,0,0,0,0,-0.0727,-0.0728,-0.0732,-0.0732,-0.0733,-0.0729,-0.0729,-0.0728,-0.0697,-0.0725,-0.0724,-0.0688,-0.0721,-0.0721,-0.0698,-0.0653,-0.0717,-0.0718,-0.0698,-0.0696,-0.0695,-0.0569,0,0,0,0,0,0,-0.0727,-0.0727,-0.0702,-0.0731,-0.0732,-0.0709,-0.0729,-0.0729,-0.0701,-0.0698,-0.0696,-0.0697,-0.072,-0.0697,-0.0698,-0.0655,-0.0718,-0.0699,-0.0697,-0.0695,-0.0575,-0.0564,-0.0555,0,0,0,0,0,-0.0727,-0.0694,-0.0701,-0.07,-0.0706,-0.0708,-0.0708,-0.0704,-0.0699,-0.0675,-0.0678,-0.0695,-0.0687,-0.0696,-0.0698,-0.0654,-0.07,-0.0697,-0.0695,-0.0579,-0.0566,-0.0555,0,0,0,0,0,0,-0.0667,-0.069,-0.0698,-0.0669,-0.0675,-0.0704,-0.067,-0.0681,-0.0666,-0.0647,-0.0681,-0.0681,-0.0646,-0.0674,-0.0683,-0.0647,-0.0697,-0.0696,-0.0608,-0.0596,-0.0586,-0.058,-0.0719,0,0,0,0,0,-0.0648,-0.063,-0.0659,-0.0629,-0.0626,-0.0644,-0.0636,-0.0637,-0.064,-0.063,-0.0634,-0.0641,-0.0648,-0.0638,-0.0649,-0.0624,-0.0652,-0.0601,-0.0591,-0.0582,-0.058,-0.0593,-0.0583,-0.0688,-0.0688,-0.0688,0,0,-0.062,-0.0623,-0.0615,-0.0615,-0.0614,-0.0605,-0.0634,-0.0604,-0.059,-0.0633,-0.0588,-0.06,-0.0636,-0.0608,-0.0595,-0.0617,-0.0563,-0.058,-0.0571,-0.0575,-0.059,-0.058,-0.057,-0.0686,-0.0687,-0.0687,0,0,-0.0564,-0.0553,-0.0529,-0.0527,-0.0518,-0.0535,-0.0519,-0.0526,-0.0514,-0.0489,-0.0518,-0.0503,-0.0506,-0.0522,-0.0535,-0.048,-0.0512,-0.0477,-0.0411,-0.0422,-0.0413,-0.0406,-0.0403,-0.0396,-0.0468,-0.0468,-0.0467,0,-0.0524,-0.0509,-0.0517,-0.0493,-0.0484,-0.05,-0.0477,-0.0472,-0.0467,-0.0459,-0.0452,-0.0457,-0.0469,-0.0464,-0.0437,-0.0453,-0.0463,-0.0447,-0.0407,-0.0401,-0.0395,-0.0394,-0.0389,-0.0461,-0.0462,-0.0463,-0.0463,0,-0.0476,-0.0448,-0.0424,-0.0412,-0.0398,-0.0372,-0.0382,-0.0354,-0.0341,-0.0351,-0.032,-0.0337,-0.0344,-0.0339,-0.0364,-0.0333,-0.0352,-0.0392,-0.0431,-0.0377,-0.0379,-0.0376,-0.0452,-0.0455,-0.0456,-0.0458,0,0,-0.0434,-0.0402,-0.039,-0.0381,-0.0353,-0.035,-0.0304,-0.0296,-0.028,-0.025,-0.0235,-0.0219,-0.0222,-0.0239,-0.0263,-0.0261,-0.0212,-0.0293,-0.0296,-0.0277,-0.0217,-0.0138,-0.0128,-0.0239,-0.0238,-0.0238,-0.0224,0,-0.0396,-0.0353,-0.034,-0.0297,-0.0285,-0.0273,-0.0244,-0.0227,-0.0214,-0.0199,-0.0198,-0.0185,-0.0189,-0.0178,-0.0172,-0.0223,-0.0201,-0.0211,-0.0284,-0.0286,-0.0213,-0.012,-0.0252,-0.0243,-0.0221,-0.022,-0.022,0,-0.0366,-0.0343,-0.0297,-0.027,-0.026,-0.0225,-0.0194,-0.0168,-0.0147,-0.0132,-0.0106,-0.012,-0.0101,-0.0118,-0.0132,-0.0135,-0.015,-0.018,-0.0182,-0.0153,-0.02,-0.0301,-0.0238,-0.0215,-0.0215,-0.0216,-0.0216,0,-0.0368,-0.0319,-0.0286,-0.0272,-0.0235,-0.0196,-0.0166,-0.0135,-0.0113,-0.008,-0.0064,-0.0058,-0.0046,-0.0068,-0.0092,-0.0111,-0.012,-0.0168,-0.0107,-0.0103,-0.0253,-0.0261,-0.016,-0.016,-0.016,-0.016,-0.016,0,-0.0356,-0.033,-0.0279,-0.0258,-0.0216,-0.0181,-0.0129,-0.01,-0.0058,-0.0028,-0.0019,-0.0,-0.003,-0.004,-0.0074,-0.0056,-0.0097,-0.0066,-0.0082,-0.0208,-0.0212,-0.0235,-0.0244,-0.0159,-0.0159,-0.0159,-0.016,0,-0.0366,-0.0335,-0.0297,-0.0236,-0.0213,-0.0173,-0.0096,-0.007,-0.0019,0.0022,0.0044,0.0054,0.0072,0.004,-0.0,-0.0012,-0.0031,-0.0017,-0.0139,-0.0164,-0.0015,-0.0018,0.0054,0.0058,0.006,0.0063,0.0064,0,-0.0373,-0.035,-0.0277,-0.0252,-0.0211,-0.0149,-0.0109,-0.0045,-0.0017,0.0055,0.0065,0.0114,0.0115,0.0107,0.0084,0.0065,0.0063,-0.0024,-0.0065,0.0036,0.0013,0.0005,-0.0001,-0.0228,-0.0229,-0.023,-0.023,0,-0.0378,-0.0338,-0.0306,-0.0239,-0.0186,-0.0153,-0.0084,-0.0057,0.002,0.0048,0.0108,0.0119,0.0141,0.0071,0.008,0.0045,-0.0029,-0.0026,0.0074,-0.0225,-0.0219,-0.0245,-0.0245,-0.0235,-0.0234,-0.0234,-0.0234,-0.0234,-0.0372,-0.035,-0.0283,-0.0221,-0.0186,-0.0145,-0.011,-0.0071,-0.0025,-0.0022,0.0028,0.0026,-0.0039,-0.0051,-0.0048,0.0014,0.0026,-0.0049,-0.0054,-0.0057,-0.0055,-0.004,-0.0023,-0.0021,-0.002,-0.0019,-0.0017,0,-0.0357,-0.0314,-0.0269,-0.0205,-0.018,-0.0133,-0.0096,-0.0124,-0.0096,-0.0101,-0.0119,-0.0145,-0.0247,-0.0177,-0.0113,-0.0102,-0.0166,-0.009,-0.0236,-0.0234,-0.0231,-0.0241,-0.0257,-0.0256,-0.0256,-0.0255,0,0,-0.0345,-0.0288,-0.0255,-0.0194,-0.0153,-0.012,-0.0096,-0.0191,-0.0228,-0.0227,-0.0192,-0.0403,-0.0279,-0.0316,-0.0345,-0.0264,-0.0245,-0.0261,-0.0098,-0.0278,-0.0274,-0.0258,-0.0276,0,0,0,0,0]},{"header":{"parameterUnit":"m.s-1","parameterCategory":2,"la1":30.2991,"la2":30.254,"lo1":-89.0895,"lo2":-89.0444,"dy":0.0017,"dx":0.0017,"nx":28,"ny":28,"refTime":"2023-04-30T15:00:00:Z","depth":"2","parameterNumber":3,"parameterNumberName":"V-component_of_CURRENTS"},"data":[0,0,0,0,0,0,0,0,0,0,0,0,0,0,0,0,0,0,0,0,0,0,0,0,0,0,0,0,0,0,0,0,0,0,0,0,0,0,0,0,0,0,0,0,0,0,0,0,0,0,0,0,0,0,0,0,0,0,0.0147,0.0147,0,0.0086,0.0085,0.0085,0.0029,0.0029,0.0028,0.0028,-0.0049,-0.0051,-0.0052,0,0,0,0,0,0,0,0,0,0,0,0,0,0.0236,0.0235,0.0147,0.0147,0.0146,0.0086,0.0085,0.0085,0.0029,0.0029,0.0028,0.0027,-0.0049,-0.005,-0.0052,0,0,0,0,0,0,0,0,0,0,0,0,0,0.0188,0.0234,0.0147,0.0112,0.0108,0.0087,0.0085,0.0084,0.003,0.0029,0.0028,0.0027,-0.0048,-0.005,-0.0052,-0.0048,0,0,-0.0059,-0.006,0,0,0,0,0,0,0,0,0.0191,0.0184,0.0118,0.0114,0.011,0.0065,0.0089,0.0039,0.003,0.0059,0.0028,0.0027,-0.0011,-0.0016,-0.0027,-0.0052,-0.0055,-0.0059,-0.0061,-0.0062,-0.0062,0,0,0,0,0,0,0,0.0194,0.0187,0.0122,0.0117,0.0112,0.0106,0.0098,0.0079,0.0029,0.0056,0.0052,0.0047,-0.0014,-0.0025,-0.0029,-0.0056,-0.0059,-0.0061,-0.0063,-0.0064,-0.0103,-0.0103,0,0,0,0,0,0,0.0203,0.019,0.0124,0.0121,0.015,0.0105,0.0096,0.008,0.0029,0.0021,0.0048,0.0044,-0.002,-0.0026,-0.0032,-0.0061,-0.0062,-0.0064,-0.0065,-0.0103,-0.0103,-0.0103,0,0,0,0,0,0,0.0205,0.0197,0.0127,0.0155,0.0146,0.0104,0.0087,0.0079,0.0067,0.0023,0.0014,0.0044,-0.0021,-0.0029,-0.0057,-0.0063,-0.0065,-0.0067,-0.0104,-0.0103,-0.0103,-0.01,0,0,0,0,0,0,0.0207,0.0198,0.0201,0.0155,0.0145,0.0114,0.0088,0.0079,0.0066,0.0061,0.0017,0.0008,-0.0023,-0.0053,-0.0059,-0.0066,-0.0069,-0.0104,-0.0103,-0.0103,-0.01,-0.0099,-0.0098,0,0,0,0,0,0.0211,0.0214,0.0201,0.0194,0.0145,0.0115,0.0109,0.0076,0.0067,0.0062,0.0027,0.001,-0.0054,-0.0055,-0.0062,-0.007,-0.0104,-0.0104,-0.0103,-0.01,-0.0099,-0.0098,0,0,0,0,0,0,0.0261,0.0208,0.0192,0.0181,0.0152,0.0106,0.0108,0.0084,0.0055,0.0054,0.0009,-0.0001,-0.0028,-0.0042,-0.0042,-0.0077,-0.008,-0.008,-0.0075,-0.0074,-0.0074,-0.0066,-0.007,0,0,0,0,0,0.0273,0.0259,0.021,0.0206,0.0194,0.0154,0.0143,0.0118,0.0083,0.0069,0.0036,0.0005,-0.0028,-0.0046,-0.0071,-0.0089,-0.0098,-0.0095,-0.0094,-0.0094,-0.0091,-0.012,-0.0122,-0.01,-0.01,-0.0101,0,0,0.0294,0.0265,0.0258,0.0217,0.0196,0.0177,0.0145,0.013,0.011,0.0068,0.0041,0.0009,-0.0031,-0.006,-0.0072,-0.0075,-0.01,-0.0093,-0.0092,-0.009,-0.012,-0.0122,-0.0124,-0.01,-0.01,-0.01,0,0,0.0328,0.0302,0.03,0.0276,0.0243,0.021,0.0207,0.0161,0.0136,0.0107,0.0066,0.0031,-0.0007,-0.005,-0.0074,-0.0077,-0.0093,-0.0079,-0.0075,-0.0104,-0.0107,-0.0109,-0.0107,-0.0109,-0.0081,-0.0081,-0.0081,0,0.0359,0.0341,0.0299,0.0291,0.0278,0.0226,0.0222,0.0186,0.0135,0.0112,0.0104,0.0027,-0.0005,-0.0061,-0.0068,-0.0077,-0.0085,-0.0081,-0.0105,-0.0107,-0.0109,-0.0107,-0.0109,-0.0081,-0.0081,-0.0081,-0.0081,0,0.038,0.0372,0.0374,0.0337,0.0317,0.0308,0.0249,0.0223,0.0191,0.0148,0.0096,0.0045,-0.0001,-0.0021,-0.0049,-0.0088,-0.0083,-0.01,-0.011,-0.0112,-0.0108,-0.0111,-0.0081,-0.0081,-0.0081,-0.0081,0,0,0.0436,0.0395,0.0398,0.0393,0.0341,0.0327,0.0289,0.0235,0.021,0.0154,0.0118,0.0049,0.0019,-0.0009,-0.0053,-0.0087,-0.0109,-0.0099,-0.0101,-0.01,-0.0151,-0.006,-0.0054,-0.0136,-0.0137,-0.0137,-0.0136,0,0.047,0.0469,0.0433,0.0434,0.0428,0.0369,0.0338,0.0282,0.0229,0.018,0.0104,0.0065,0.0022,0.0006,-0.0042,-0.0102,-0.0118,-0.0106,-0.0146,-0.0146,-0.0069,-0.0055,-0.0039,-0.003,-0.0139,-0.0139,-0.014,0,0.0502,0.0496,0.0509,0.0477,0.047,0.0471,0.0415,0.0378,0.0284,0.0243,0.0173,0.011,0.0034,0.0016,-0.0084,-0.0076,-0.0102,-0.014,-0.0141,-0.0059,-0.006,-0.0049,-0.0031,-0.0144,-0.0144,-0.0144,-0.0143,0,0.0565,0.0548,0.0564,0.0556,0.0511,0.0519,0.0498,0.0418,0.0382,0.0298,0.0266,0.0154,0.0115,0.0037,-0.0053,-0.0067,-0.0145,-0.0171,-0.0106,-0.01,-0.0094,-0.0084,-0.0206,-0.0206,-0.0206,-0.0206,-0.0206,0,0.0607,0.0623,0.061,0.0625,0.065,0.0598,0.0604,0.0556,0.0482,0.0436,0.0324,0.0271,0.0119,0.0039,-0.0037,-0.0074,-0.0127,-0.0092,-0.0094,-0.0087,-0.0077,-0.0188,-0.0186,-0.0206,-0.0206,-0.0206,-0.0206,0,0.0672,0.0658,0.0684,0.0677,0.0689,0.0715,0.0697,0.0677,0.0607,0.0546,0.0525,0.0365,0.0266,0.0133,0.0011,-0.0021,-0.0082,-0.0071,-0.0032,-0.0027,-0.002,-0.0017,0.0001,0.0004,0.0007,0.0009,0.0011,0,0.0703,0.0724,0.0751,0.0782,0.0799,0.0826,0.0833,0.0765,0.073,0.0599,0.057,0.046,0.0402,0.0271,0.0196,0.0126,0.0002,0.0071,0.0059,0.0005,0.0001,-0.0001,-0.0002,0.0062,0.0065,0.0066,0.0068,0,0.0757,0.0774,0.0786,0.0862,0.0904,0.0921,0.0929,0.0915,0.0805,0.0783,0.0706,0.0669,0.0554,0.0453,0.0362,0.0313,0.0079,0.0113,0.0016,0.003,0.007,0.0064,0.0059,0.0084,0.0082,0.0081,0.008,0.0079,0.0798,0.0817,0.0846,0.0922,0.0974,0.1009,0.1038,0.1014,0.1005,0.0836,0.0825,0.0706,0.0449,0.0353,0.0335,0.0341,0.0336,0.0205,0.0195,0.0185,0.0214,0.0259,0.0315,0.0314,0.0314,0.0314,0.0314,0,0.0812,0.0838,0.0904,0.097,0.1047,0.1075,0.1087,0.107,0.11,0.0834,0.0791,0.0528,0.048,0.0281,0.0393,0.042,0.0409,0.0325,0.0241,0.0227,0.0215,0.0241,0.0351,0.0351,0.0351,0.0351,0,0,0.0813,0.0852,0.0886,0.1017,0.1099,0.1192,0.1224,0.1172,0.1027,0.0742,0.0548,0.0319,0.0261,0.0188,0.0215,0.0321,0.027,0.0338,0.0312,0.0199,0.0185,0.0159,0.0188,0,0,0,0,0]}],[{"header":{"parameterUnit":"m.s-1","parameterCategory":2,"la1":30.2991,"la2":30.254,"lo1":-89.0895,"lo2":-89.0444,"dy":0.0017,"dx":0.0017,"nx":28,"ny":28,"refTime":"2023-04-30T15:00:00:Z","depth":"4","parameterNumber":2,"parameterNumberName":"U-component_of_CURRENTS"},"data":[0,0,0,0,0,0,0,0,0,0,0,0,0,0,0,0,0,0,0,0,0,0,0,0,0,0,0,0,0,0,0,0,0,0,0,0,0,0,0,0,0,0,0,0,0,0,0,0,0,0,0,0,0,0,0,0,0,0,-0.0822,-0.0823,0,-0.0813,-0.0813,-0.0812,-0.0813,-0.0813,-0.0814,-0.0814,-0.0866,-0.0867,-0.0868,0,0,0,0,0,0,0,0,0,0,0,0,0,-0.0761,-0.0762,-0.0822,-0.0823,-0.0823,-0.0814,-0.0813,-0.0812,-0.0812,-0.0813,-0.0814,-0.0815,-0.0866,-0.0867,-0.0868,0,0,0,0,0,0,0,0,0,0,0,0,0,-0.0768,-0.0762,-0.0822,-0.0826,-0.0827,-0.0814,-0.0813,-0.0812,-0.0812,-0.0813,-0.0814,-0.0815,-0.0866,-0.0867,-0.0868,-0.0856,0,0,-0.0871,-0.0872,0,0,0,0,0,0,0,0,-0.0768,-0.077,-0.0825,-0.0826,-0.0827,-0.082,-0.081,-0.0832,-0.0812,-0.0812,-0.0814,-0.0816,-0.086,-0.0861,-0.0848,-0.0858,-0.086,-0.0872,-0.0872,-0.0873,-0.0873,0,0,0,0,0,0,0,-0.0767,-0.077,-0.0813,-0.0826,-0.0827,-0.0802,-0.0804,-0.0813,-0.0827,-0.0812,-0.0813,-0.0821,-0.086,-0.0847,-0.085,-0.0861,-0.0872,-0.0873,-0.0873,-0.0874,-0.0975,-0.0977,0,0,0,0,0,0,-0.0783,-0.077,-0.0813,-0.0813,-0.0806,-0.0803,-0.0805,-0.0817,-0.0826,-0.0829,-0.082,-0.0821,-0.0845,-0.0848,-0.0852,-0.0926,-0.0873,-0.0874,-0.0875,-0.0973,-0.0976,-0.0978,0,0,0,0,0,0,-0.0782,-0.0787,-0.0814,-0.0795,-0.0798,-0.0805,-0.0816,-0.0816,-0.0832,-0.0832,-0.0836,-0.0841,-0.0845,-0.085,-0.089,-0.0925,-0.0874,-0.0875,-0.0971,-0.0974,-0.0977,-0.1019,0,0,0,0,0,0,-0.078,-0.0787,-0.0798,-0.0797,-0.08,-0.0822,-0.0816,-0.0815,-0.0836,-0.0838,-0.0851,-0.0855,-0.0847,-0.0888,-0.0891,-0.0926,-0.0876,-0.0968,-0.0972,-0.0976,-0.1015,-0.1023,-0.103,0,0,0,0,0,-0.0778,-0.0793,-0.0798,-0.0804,-0.0816,-0.0824,-0.0822,-0.0825,-0.0837,-0.0843,-0.0863,-0.0856,-0.0915,-0.089,-0.0893,-0.0929,-0.0966,-0.0971,-0.0975,-0.1012,-0.1022,-0.103,0,0,0,0,0,0,-0.0769,-0.0795,-0.0801,-0.0823,-0.0831,-0.0826,-0.0834,-0.0842,-0.0858,-0.087,-0.0872,-0.0877,-0.0929,-0.0926,-0.0899,-0.0973,-0.0943,-0.0948,-0.097,-0.0979,-0.0987,-0.0983,-0.0877,0,0,0,0,0,-0.0774,-0.0796,-0.081,-0.0828,-0.0836,-0.084,-0.0846,-0.0852,-0.0867,-0.0875,-0.0889,-0.0913,-0.0943,-0.0959,-0.0978,-0.101,-0.1019,-0.104,-0.1048,-0.1054,-0.1056,-0.1142,-0.1157,-0.0992,-0.0992,-0.0992,0,0,-0.0774,-0.0794,-0.0805,-0.0828,-0.0833,-0.0844,-0.0845,-0.0865,-0.0879,-0.088,-0.0913,-0.0941,-0.096,-0.1,-0.1024,-0.1005,-0.1096,-0.106,-0.1064,-0.1063,-0.1148,-0.1164,-0.1178,-0.0995,-0.0995,-0.0994,0,0,-0.0779,-0.0806,-0.082,-0.0833,-0.0857,-0.0861,-0.0878,-0.0893,-0.0906,-0.094,-0.0956,-0.1002,-0.1037,-0.1055,-0.107,-0.113,-0.1137,-0.1154,-0.1182,-0.1266,-0.128,-0.1293,-0.1281,-0.1292,-0.1153,-0.1153,-0.1153,0,-0.0777,-0.0801,-0.0823,-0.0838,-0.0854,-0.0877,-0.089,-0.0903,-0.0931,-0.0947,-0.0962,-0.1041,-0.1058,-0.1111,-0.1141,-0.1145,-0.1176,-0.1142,-0.1276,-0.1289,-0.1301,-0.1286,-0.1298,-0.1155,-0.1155,-0.1155,-0.1155,0,-0.0785,-0.0809,-0.0822,-0.0851,-0.0868,-0.0889,-0.0914,-0.0939,-0.0971,-0.0984,-0.1054,-0.1088,-0.114,-0.116,-0.1171,-0.1269,-0.1253,-0.1278,-0.1249,-0.132,-0.1299,-0.1311,-0.1159,-0.1158,-0.1157,-0.1157,0,0,-0.077,-0.0816,-0.0824,-0.0837,-0.0882,-0.0893,-0.093,-0.096,-0.0981,-0.1037,-0.1075,-0.1151,-0.119,-0.1212,-0.1245,-0.1314,-0.1411,-0.1346,-0.1349,-0.1324,-0.1554,-0.1311,-0.1299,-0.149,-0.1493,-0.1496,-0.1487,0,-0.077,-0.0799,-0.0827,-0.0856,-0.087,-0.0909,-0.0936,-0.097,-0.1004,-0.1044,-0.1108,-0.1175,-0.1205,-0.1261,-0.1333,-0.1413,-0.1454,-0.1407,-0.1496,-0.1496,-0.1267,-0.131,-0.1507,-0.1495,-0.1498,-0.15,-0.1501,0,-0.0765,-0.0788,-0.0817,-0.0857,-0.0868,-0.0893,-0.0941,-0.0968,-0.1025,-0.1067,-0.1145,-0.1201,-0.1316,-0.1339,-0.1492,-0.1479,-0.152,-0.1558,-0.156,-0.1328,-0.1277,-0.1423,-0.1522,-0.1521,-0.1519,-0.1518,-0.1516,0,-0.0735,-0.078,-0.0806,-0.0822,-0.0871,-0.0897,-0.0928,-0.0975,-0.1003,-0.1104,-0.1147,-0.1271,-0.1359,-0.1469,-0.1496,-0.1565,-0.1594,-0.17,-0.149,-0.1471,-0.1674,-0.1661,-0.1789,-0.1789,-0.1789,-0.1789,-0.1789,0,-0.0721,-0.074,-0.0798,-0.0811,-0.0836,-0.0883,-0.0919,-0.0962,-0.1029,-0.105,-0.1175,-0.1195,-0.1421,-0.1433,-0.1489,-0.1452,-0.1588,-0.1483,-0.1466,-0.1683,-0.1672,-0.1678,-0.1665,-0.1788,-0.1788,-0.1788,-0.1788,0,-0.0681,-0.0723,-0.0748,-0.0806,-0.0822,-0.0845,-0.0912,-0.0927,-0.1018,-0.1053,-0.111,-0.1207,-0.1254,-0.1305,-0.1429,-0.1416,-0.1415,-0.134,-0.1446,-0.1436,-0.126,-0.1251,-0.1247,-0.1239,-0.1232,-0.1226,-0.1221,0,-0.0662,-0.0675,-0.0733,-0.0745,-0.0774,-0.0818,-0.0834,-0.0919,-0.0931,-0.1003,-0.0997,-0.1066,-0.1108,-0.1041,-0.1131,-0.1151,-0.1144,-0.114,-0.1342,-0.1227,-0.1213,-0.1214,-0.1214,-0.121,-0.1208,-0.1206,-0.1204,0,-0.0621,-0.0653,-0.0673,-0.0696,-0.0719,-0.0729,-0.0759,-0.0768,-0.0845,-0.0937,-0.09,-0.0913,-0.0891,-0.0948,-0.0882,-0.0909,-0.1179,-0.107,-0.1092,-0.1283,-0.1182,-0.1175,-0.1183,-0.118,-0.1183,-0.1186,-0.1187,0,-0.0593,-0.0593,-0.0624,-0.0636,-0.0642,-0.0614,-0.0655,-0.0659,-0.0689,-0.0788,-0.0738,-0.0768,-0.0845,-0.0804,-0.0732,-0.0728,-0.0848,-0.0926,-0.0959,-0.0987,-0.0902,-0.0735,-0.0573,0,0,0,0,0,-0.056,-0.0551,-0.0557,-0.054,-0.0533,-0.0531,-0.0576,-0.0622,-0.0694,-0.0651,-0.071,-0.0667,-0.0648,-0.0636,-0.0605,-0.0651,-0.0839,-0.0612,-0.0944,-0.1044,-0.1072,-0.0993,0,0,0,0,0,0,-0.0537,-0.0544,-0.0536,-0.0447,-0.0406,-0.0379,-0.0401,-0.0458,-0.0446,-0.0539,-0.052,-0.0611,-0.0581,-0.0637,-0.0575,-0.058,-0.078,-0.0637,-0.0636,-0.1028,-0.1053,-0.1076,-0.1005,0,0,0,0,0]},{"header":{"parameterUnit":"m.s-1","parameterCategory":2,"la1":30.2991,"la2":30.254,"lo1":-89.0895,"lo2":-89.0444,"dy":0.0017,"dx":0.0017,"nx":28,"ny":28,"refTime":"2023-04-30T15:00:00:Z","depth":"4","parameterNumber":3,"parameterNumberName":"V-component_of_CURRENTS"},"data":[0,0,0,0,0,0,0,0,0,0,0,0,0,0,0,0,0,0,0,0,0,0,0,0,0,0,0,0,0,0,0,0,0,0,0,0,0,0,0,0,0,0,0,0,0,0,0,0,0,0,0,0,0,0,0,0,0,0,-0.0115,-0.0115,0,-0.0106,-0.0106,-0.0106,-0.0092,-0.0092,-0.0091,-0.0091,-0.0074,-0.0074,-0.0074,0,0,0,0,0,0,0,0,0,0,0,0,0,-0.0108,-0.0108,-0.0115,-0.0115,-0.0115,-0.0106,-0.0106,-0.0106,-0.0092,-0.0092,-0.0091,-0.0091,-0.0074,-0.0074,-0.0074,0,0,0,0,0,0,0,0,0,0,0,0,0,-0.0108,-0.0109,-0.0115,-0.0106,-0.0105,-0.0106,-0.0106,-0.0106,-0.0092,-0.0092,-0.0091,-0.0091,-0.0074,-0.0074,-0.0074,-0.0083,0,0,-0.0073,-0.0073,0,0,0,0,0,0,0,0,-0.0108,-0.0108,-0.0107,-0.0106,-0.0105,-0.0098,-0.0097,-0.0097,-0.0093,-0.0099,-0.0091,-0.0091,-0.0081,-0.008,-0.0082,-0.0083,-0.0082,-0.0073,-0.0073,-0.0073,-0.0073,0,0,0,0,0,0,0,-0.0108,-0.0108,-0.0113,-0.0107,-0.0106,-0.0097,-0.0097,-0.0097,-0.0094,-0.0098,-0.0097,-0.0094,-0.008,-0.0082,-0.0081,-0.0082,-0.0073,-0.0073,-0.0073,-0.0073,-0.0122,-0.0124,0,0,0,0,0,0,-0.0107,-0.0108,-0.0113,-0.0112,-0.0103,-0.0098,-0.0098,-0.0102,-0.0094,-0.0092,-0.0094,-0.0093,-0.0082,-0.0081,-0.008,-0.0114,-0.0073,-0.0073,-0.0073,-0.0121,-0.0123,-0.0124,0,0,0,0,0,0,-0.0107,-0.0108,-0.0113,-0.0108,-0.0108,-0.0099,-0.0104,-0.0102,-0.0107,-0.0091,-0.0089,-0.01,-0.0082,-0.0081,-0.0091,-0.0112,-0.0073,-0.0072,-0.0119,-0.0121,-0.0123,-0.0167,0,0,0,0,0,0,-0.0107,-0.0109,-0.0115,-0.0109,-0.0109,-0.0119,-0.0104,-0.0102,-0.0105,-0.0103,-0.0095,-0.0093,-0.0081,-0.0092,-0.0091,-0.0111,-0.0072,-0.0117,-0.012,-0.0123,-0.0164,-0.017,-0.0176,0,0,0,0,0,-0.0107,-0.0118,-0.0115,-0.0116,-0.0117,-0.0119,-0.0119,-0.011,-0.0106,-0.0112,-0.0111,-0.0093,-0.0108,-0.0093,-0.0091,-0.0112,-0.0116,-0.0119,-0.0122,-0.0161,-0.0169,-0.0176,0,0,0,0,0,0,-0.0121,-0.0118,-0.0114,-0.0125,-0.0123,-0.0116,-0.0119,-0.0116,-0.0121,-0.0122,-0.0107,-0.0105,-0.0126,-0.0116,-0.0099,-0.0137,-0.0111,-0.0114,-0.0141,-0.0148,-0.0154,-0.0165,-0.0072,0,0,0,0,0,-0.0126,-0.0135,-0.0128,-0.0138,-0.0136,-0.013,-0.0131,-0.0129,-0.0129,-0.013,-0.0125,-0.0128,-0.014,-0.014,-0.0146,-0.0161,-0.0137,-0.0177,-0.0183,-0.0188,-0.0198,-0.0182,-0.0187,-0.0135,-0.0135,-0.0135,0,0,-0.0135,-0.0134,-0.014,-0.0142,-0.0139,-0.0151,-0.013,-0.0136,-0.0154,-0.0128,-0.015,-0.015,-0.015,-0.0172,-0.018,-0.0163,-0.0188,-0.0192,-0.0196,-0.0203,-0.0186,-0.0191,-0.0195,-0.0137,-0.0136,-0.0136,0,0,-0.0155,-0.0155,-0.0166,-0.0169,-0.0168,-0.0169,-0.0173,-0.0172,-0.0176,-0.0195,-0.0189,-0.0206,-0.021,-0.0222,-0.0227,-0.0273,-0.0225,-0.0269,-0.0302,-0.0287,-0.0291,-0.0294,-0.0255,-0.0254,-0.0267,-0.0267,-0.0267,0,-0.0166,-0.0181,-0.017,-0.0183,-0.0193,-0.018,-0.0201,-0.0206,-0.0212,-0.0227,-0.0209,-0.0245,-0.0241,-0.0281,-0.0293,-0.0288,-0.0254,-0.0271,-0.0293,-0.0296,-0.0298,-0.0258,-0.0256,-0.027,-0.0269,-0.0269,-0.0269,0,-0.0192,-0.0207,-0.0214,-0.023,-0.0241,-0.0256,-0.0261,-0.0277,-0.0281,-0.0286,-0.0322,-0.0319,-0.0342,-0.0343,-0.0328,-0.0353,-0.0314,-0.0304,-0.027,-0.0306,-0.0261,-0.0259,-0.0273,-0.0272,-0.0272,-0.0271,0,0,-0.0213,-0.0229,-0.0235,-0.0253,-0.027,-0.0285,-0.0318,-0.0346,-0.0377,-0.0379,-0.042,-0.0435,-0.0428,-0.0435,-0.0422,-0.0404,-0.0385,-0.0355,-0.0353,-0.0308,-0.0321,-0.0321,-0.0317,-0.0363,-0.0363,-0.0363,-0.0276,0,-0.0239,-0.027,-0.0279,-0.0326,-0.0343,-0.0357,-0.0391,-0.0418,-0.0434,-0.0468,-0.0472,-0.0504,-0.0464,-0.0478,-0.0456,-0.041,-0.0383,-0.0408,-0.0301,-0.0298,-0.0287,-0.0318,-0.0364,-0.0274,-0.0274,-0.0273,-0.0273,0,-0.0267,-0.0284,-0.0327,-0.0375,-0.0386,-0.0421,-0.0483,-0.051,-0.055,-0.0564,-0.0589,-0.0585,-0.0586,-0.0544,-0.0469,-0.0477,-0.0406,-0.0356,-0.0351,-0.0338,-0.0295,-0.0236,-0.0268,-0.0269,-0.0269,-0.0269,-0.027,0,-0.0286,-0.0327,-0.0365,-0.038,-0.0426,-0.0465,-0.0498,-0.0544,-0.0578,-0.0629,-0.0657,-0.0652,-0.0658,-0.0575,-0.049,-0.0464,-0.0396,-0.0349,-0.0281,-0.0278,-0.028,-0.0278,-0.0296,-0.0296,-0.0296,-0.0297,-0.0297,0,-0.0314,-0.0349,-0.0379,-0.0401,-0.0466,-0.049,-0.0564,-0.06,-0.065,-0.0691,-0.0704,-0.0722,-0.0662,-0.0622,-0.0515,-0.0404,-0.0415,-0.0295,-0.0267,-0.0299,-0.03,-0.0277,-0.0276,-0.0293,-0.0294,-0.0295,-0.0295,0,-0.0338,-0.0352,-0.04,-0.0451,-0.0477,-0.0524,-0.0605,-0.0652,-0.0692,-0.0747,-0.0767,-0.0775,-0.0699,-0.0639,-0.0519,-0.0447,-0.0341,-0.0301,-0.035,-0.0324,-0.021,-0.0212,-0.0181,-0.018,-0.018,-0.0179,-0.0179,0,-0.0354,-0.0374,-0.0435,-0.0474,-0.0506,-0.0574,-0.0625,-0.0676,-0.0709,-0.0757,-0.0772,-0.0756,-0.0738,-0.0576,-0.0501,-0.0339,-0.0311,-0.0274,-0.023,-0.0228,-0.0203,-0.0206,-0.0209,-0.0179,-0.0178,-0.0178,-0.0178,0,-0.0381,-0.04,-0.0434,-0.0504,-0.0565,-0.0633,-0.0692,-0.0713,-0.0755,-0.0791,-0.0762,-0.0715,-0.0647,-0.0535,-0.0462,-0.0332,-0.031,-0.0268,-0.0266,-0.0223,-0.0225,-0.0201,-0.0204,-0.0177,-0.0177,-0.0177,-0.0177,0,-0.0401,-0.043,-0.0469,-0.053,-0.0607,-0.0667,-0.0702,-0.0717,-0.0743,-0.0761,-0.074,-0.0687,-0.0662,-0.053,-0.0439,-0.0353,-0.0281,-0.024,-0.0238,-0.0239,-0.0294,-0.0307,-0.0268,0,0,0,0,0,-0.0415,-0.044,-0.0498,-0.0563,-0.0636,-0.0677,-0.0735,-0.0753,-0.0769,-0.0737,-0.0733,-0.0655,-0.0535,-0.0491,-0.0389,-0.041,-0.0279,-0.029,-0.0234,-0.0169,-0.0171,-0.0229,0,0,0,0,0,0,-0.0429,-0.0472,-0.0488,-0.0566,-0.0617,-0.0698,-0.0733,-0.075,-0.071,-0.0713,-0.0634,-0.062,-0.049,-0.0578,-0.038,-0.036,-0.0309,-0.0238,-0.0236,-0.0168,-0.017,-0.0171,-0.0231,0,0,0,0,0]}]]